Voltar ao catálogo

COSMOS 2251 DEB

AtivoVLEO
NORAD 38062·DEBRIS·🇷🇺 Russia

Lançado Jun 16, 1993 de Plesetsk Cosmodrome

Loading…

Próximas Passagens (próximas 24 horas)

TLE

EnvelhecendoSource: Space-Track

Época: Sep 13, 2026, 06:56 UTC

1 38062U 93036BRU 26256.28909439  .00020477  00000-0  13104-2 0  9996
2 38062  74.0001  89.5501 0016693 149.7853  24.6928 15.08417431671529

Acompanhe COSMOS 2251 DEB em tempo real com AllMySat

Download on the App Store